SP8NFE-1 Weather Reports


time (UTC)temp
C
wind
direction
speed
KPH
gust
KPH
rain 1hr
cm
rain 24hr
cm
rain mn
cm
humidity
%
barometer
mb
20260905234653 15 180 8.0 14.5 0.00 4.72 3.96 67
20260905234153 15 180 6.4 14.5 0.00 4.72 3.96 66
20260905233653 15 180 4.8 8.0 0.00 4.72 3.96 66
20260905233153 15 180 0.0 16.1 0.00 4.72 3.96 66
20260905232653 15 180 9.7 19.3 0.00 4.72 3.96 66
20260905232153 16 180 12.9 16.1 0.00 4.72 3.96 65
20260905231653 15 180 0.0 14.5 0.00 4.72 3.96 65
20260905231153 16 180 0.0 16.1 0.00 4.72 3.96 65
20260905230653 16 180 3.2 22.5 0.00 4.72 3.96 64
20260905230153 16 180 8.0 24.1 0.00 4.72 3.96 64
20260905225653 16 180 3.2 14.5 0.00 4.72 3.96 66
20260905225153 15 180 9.7 24.1 0.00 4.72 3.96 100
20260905224653 15 180 0.0 19.3 0.00 4.72 3.96 80
20260905224153 13 180 0.0 8.0 0.00 4.72 3.96 86
20260905223653 13 180 0.0 4.8 0.00 4.72 3.96 98
20260905223153 12 180 0.0 0.0 0.00 4.72 3.96 100
20260905222653 12 180 0.0 0.0 0.00 4.72 3.96 100
20260905222153 12 180 0.0 0.0 0.00 4.72 3.96 100
20260905221653 12 180 0.0 0.0 0.00 4.72 3.96 100
20260905221154 12 180 0.0 0.0 0.00 4.72 3.96 100
20260905220656 12 180 0.0 0.0 0.00 4.72 3.96 100
20260905220154 12 180 0.0 0.0 0.00 4.72 3.96 100
20260905215654 12 180 0.0 0.0 0.00 4.72 3.96 100
20260905215154 12 180 0.0 0.0 0.00 4.72 3.96 100
20260905214654 12 180 0.0 0.0 0.00 4.72 3.96 100
20260905214154 12 180 0.0 0.0 0.00 4.72 3.96 100
20260905213654 12 180 0.0 0.0 0.00 4.72 3.96 100
20260905213154 12 180 0.0 0.0 0.00 4.72 3.96 100
20260905212654 12 180 0.0 0.0 0.00 4.72 3.96 100
20260905212154 12 180 0.0 0.0 0.00 4.72 3.96 100
20260905211654 12 180 0.0 0.0 0.00 4.72 3.96 100
20260905211154 12 180 0.0 0.0 0.00 4.72 3.96 100
20260905210654 12 180 0.0 0.0 0.00 4.72 3.96 100
20260905210154 12 180 0.0 0.0 0.00 4.72 3.96 100
20260905205654 12 180 0.0 0.0 0.00 4.72 3.96 100
20260905205154 12 180 0.0 0.0 0.00 4.72 3.96 100
20260905204654 12 180 0.0 0.0 0.00 4.72 3.96 100
20260905204154 12 180 0.0 0.0 0.00 4.72 3.96 100
20260905203654 12 180 0.0 0.0 0.00 4.72 3.96 100
20260905203154 12 180 0.0 0.0 0.00 4.72 3.96 100
20260905202654 12 180 0.0 0.0 0.00 4.72 3.96 100
20260905202154 12 180 0.0 0.0 0.00 4.72 3.96 100
20260905201654 12 180 0.0 0.0 0.00 4.72 3.96 100
20260905201154 12 180 0.0 0.0 0.00 4.72 3.96 100
20260905200654 12 180 0.0 0.0 0.00 4.72 3.96 100
20260905200154 12 180 0.0 0.0 0.00 4.72 3.96 100
20260905195654 12 180 0.0 0.0 0.00 4.72 3.96 100
20260905195154 12 180 0.0 0.0 0.00 4.72 3.96 100
20260905194654 12 180 0.0 0.0 0.00 4.72 3.96 100
20260905194154 12 180 0.0 0.0 0.00 4.72 3.96 100
20260905193654 12 180 0.0 0.0 0.00 4.72 3.96 100
20260905193154 12 180 0.0 0.0 0.00 4.72 3.96 100
20260905192654 12 180 0.0 0.0 0.00 4.72 3.96 100
20260905192154 12 180 0.0 0.0 0.00 4.72 3.96 99
20260905191654 12 180 0.0 0.0 0.00 4.72 3.96 99
20260905191154 12 180 0.0 0.0 0.00 4.72 3.96 98
20260905190654 12 180 0.0 0.0 0.00 4.72 3.96 98
20260905190156 12 180 0.0 0.0 0.00 4.72 3.96 98
20260905185654 12 180 0.0 0.0 0.00 4.72 3.96 98
20260905185154 12 180 0.0 0.0 0.00 4.72 3.96 98
20260905184654 12 180 0.0 0.0 0.00 4.75 3.96 98
20260905184154 12 180 0.0 0.0 0.00 4.75 3.96 97
20260905183654 12 180 0.0 0.0 0.00 4.75 3.96 97
20260905183154 12 180 0.0 0.0 0.00 4.75 3.96 97
20260905182654 12 180 0.0 0.0 0.00 4.75 3.96 96
20260905182154 12 180 0.0 0.0 0.00 4.75 3.96 95
20260905181654 13 180 0.0 0.0 0.00 4.75 3.96 93
20260905181154 13 180 0.0 0.0 0.00 4.75 3.96 92
20260905180654 13 180 0.0 0.0 0.00 4.75 3.96 89
20260905180154 13 180 0.0 0.0 0.00 4.75 3.96 87
20260905175654 14 180 0.0 0.0 0.00 4.75 3.96 85
20260905175154 15 180 0.0 0.0 0.00 4.75 3.96 82
20260905174654 15 180 0.0 0.0 0.00 4.75 3.96 81
20260905174154 15 180 0.0 0.0 0.00 4.75 3.96 78
20260905173654 16 180 0.0 0.0 0.00 4.75 3.96 76
20260905173154 16 180 0.0 0.0 0.00 4.75 3.96 73
20260905172654 16 180 0.0 0.0 0.00 4.75 3.96 68
20260905172154 17 180 0.0 0.0 0.00 4.75 3.96 63
20260905171654 17 180 0.0 0.0 0.00 4.75 3.96 60
20260905171154 18 180 0.0 3.2 0.00 4.75 3.96 58
20260905170654 18 180 0.0 0.0 0.00 4.75 3.96 55
20260905170154 18 180 0.0 0.0 0.00 4.75 3.96 54
20260905165654 18 180 0.0 0.0 0.00 4.75 3.96 53
20260905165154 18 180 0.0 4.8 0.00 4.75 3.96 53
20260905164654 18 180 0.0 4.8 0.00 4.75 3.96 53
20260905164154 19 180 1.6 6.4 0.00 4.75 3.96 53
20260905163154 19 180 3.2 9.7 0.00 4.75 3.96 53
20260905162654 19 180 6.4 6.4 0.00 4.75 3.96 53
20260905162154 19 180 0.0 0.0 0.00 4.75 3.96 54
20260905161654 19 180 0.0 6.4 0.00 4.75 3.96 54
20260905161154 20 180 0.0 8.0 0.00 4.75 3.96 54
20260905160654 20 180 0.0 9.7 0.00 4.75 3.96 54
20260905160154 20 180 0.0 11.3 0.00 4.75 3.96 54
20260905155654 20 180 0.0 12.9 0.00 4.75 3.96 54
20260905155154 20 180 0.0 11.3 0.00 4.75 3.96 54
20260905154654 20 180 1.6 14.5 0.00 4.75 3.96 54
20260905154155 20 180 4.8 17.7 0.00 4.75 3.96 52
20260905153655 20 180 4.8 12.9 0.00 4.75 3.96 52
20260905153155 20 180 0.0 11.3 0.00 4.75 3.96 52
20260905152655 20 180 0.0 4.8 0.00 4.75 3.96 53
20260905152155 21 180 3.2 11.3 0.00 4.75 3.96 51
20260905151655 21 180 1.6 4.8 0.00 4.75 3.96 53
20260905151155 20 180 3.2 6.4 0.00 4.75 3.96 52
20260905150655 20 180 1.6 11.3 0.00 4.75 3.96 51
20260905150155 20 180 6.4 14.5 0.00 4.75 3.96 50
20260905145655 20 180 0.0 11.3 0.00 4.75 3.96 52
20260905145155 20 180 1.6 11.3 0.00 4.75 3.96 52
20260905144655 20 180 1.6 11.3 0.00 4.75 3.96 53
20260905144155 20 180 0.0 4.8 0.00 4.75 3.96 55
20260905143655 20 180 0.0 8.0 0.00 4.75 3.96 56
20260905143155 20 180 0.0 8.0 0.00 4.75 3.96 55
20260905142655 20 180 6.4 8.0 0.00 4.75 3.96 54
20260905142155 20 180 0.0 9.7 0.00 4.75 3.96 54
20260905141655 20 180 4.8 12.9 0.00 4.75 3.96 53
20260905141155 20 180 6.4 12.9 0.00 4.75 3.96 53
20260905140655 20 180 0.0 14.5 0.00 4.75 3.96 51
20260905140155 20 180 6.4 6.4 0.00 4.75 3.96 55
20260905135655 20 180 0.0 12.9 0.00 4.75 3.96 53
20260905135155 20 180 1.6 9.7 0.00 4.75 3.96 53
20260905134655 20 180 8.0 9.7 0.00 4.75 3.96 52
20260905134155 20 180 0.0 11.3 0.00 4.75 3.96 52
20260905133655 20 180 11.3 11.3 0.00 4.75 3.96 51
20260905133155 20 180 3.2 16.1 0.00 4.75 3.96 51
20260905132655 20 180 1.6 9.7 0.00 4.75 3.96 50
20260905132155 20 180 1.6 19.3 0.00 4.75 3.96 52
20260905131655 20 180 0.0 9.7 0.00 4.75 3.96 50
20260905131155 20 180 1.6 24.1 0.00 4.75 3.96 49
20260905130655 20 180 20.9 20.9 0.20 4.75 3.96 51
20260905130155 20 180 1.6 19.3 0.20 4.75 3.96 50
20260905125655 20 180 4.8 12.9 0.20 4.75 3.96 50
20260905125158 20 180 8.0 14.5 0.20 4.75 3.96 50
20260905124655 20 180 1.6 17.7 0.20 4.75 3.96 50
20260905124155 20 180 14.5 22.5 0.30 4.75 3.96 50
20260905123655 20 180 9.7 19.3 0.58 4.75 3.96 51
20260905123155 20 180 16.1 16.1 0.66 4.75 3.96 53
20260905122655 20 180 3.2 14.5 0.66 4.75 3.96 54
20260905122155 20 180 0.0 14.5 0.84 4.75 3.96 54
20260905121655 20 180 1.6 14.5 1.12 4.75 3.96 52
20260905121155 20 180 0.0 11.3 2.08 4.75 3.96 53
20260905120655 20 180 6.4 12.9 2.64 4.55 3.76 53
20260905120155 21 180 6.4 14.5 2.92 4.55 3.76 52
20260905115655 20 180 0.0 17.7 3.12 4.55 3.76 54
20260905115209 20 180 12.9 22.5 3.40 4.55 3.76 53
20260905114655 20 180 12.9 17.7 3.53 4.55 3.76 54
20260905114157 20 180 1.6 16.1 3.43 4.45 3.66 58
20260905113655 20 180 8.0 19.3 3.20 4.17 3.38 57
20260905113157 19 180 3.2 17.7 3.15 4.09 3.30 60
20260905112655 19 180 4.8 20.9 3.15 4.09 3.30 61
20260905112155 18 180 4.8 14.5 2.97 3.91 3.12 64
20260905111655 18 180 6.4 19.3 2.69 3.63 2.82 65
20260905111155 18 180 9.7 19.3 1.78 2.67 1.88 66
20260905110655 18 180 11.3 19.3 1.07 1.91 1.12 67
20260905110155 18 180 14.5 25.7 0.79 1.63 0.81 69
20260905105655 18 180 14.5 17.7 0.58 1.42 0.64 70
20260905105155 17 180 4.8 22.5 0.30 1.14 0.36 70
20260905104655 17 180 0.0 11.3 0.18 1.02 0.23 74
20260905104155 17 180 0.0 11.3 0.23 1.02 0.23 74
20260905103655 17 180 1.6 16.1 0.18 0.97 0.18 75
20260905103155 17 180 12.9 14.5 0.15 0.94 0.15 78
20260905102655 17 180 3.2 8.0 0.15 0.94 0.15 76
20260905102155 17 180 4.8 9.7 0.15 0.94 0.15 78
20260905101655 16 180 0.0 4.8 0.15 0.94 0.15 76
20260905101155 16 180 4.8 11.3 0.10 0.89 0.08 74
20260905100655 16 180 8.0 8.0 0.05 0.84 0.05 74
20260905100155 16 180 1.6 12.9 0.05 0.84 0.05 74
20260905095655 16 180 0.0 6.4 0.05 0.84 0.05 75
20260905095155 16 180 0.0 14.5 0.05 0.84 0.05 75
20260905094658 16 180 1.6 11.3 0.05 0.84 0.05 77
20260905094156 16 180 6.4 8.0 0.00 0.79 0.00 80
20260905093656 16 180 4.8 17.7 0.00 0.79 0.00 80
20260905093155 16 180 3.2 8.0 0.00 0.79 0.00 85
20260905092655 15 180 4.8 14.5 0.00 0.79 0.00 89
20260905092156 15 180 0.0 4.8 0.00 0.79 0.00 88
20260905091313 15 180 0.0 0.0 0.00 0.79 0.00 92
20260905090657 15 180 0.0 6.4 0.03 0.79 0.00 92
20260905090213 15 180 0.0 1.6 0.08 0.79 0.00 93
20260905085836 15 180 0.0 8.0 0.08 0.79 0.00 93
20260905085156 15 180 0.0 6.4 0.08 0.79 0.00 93
20260905084712 15 180 6.4 17.7 0.08 0.79 0.79 95
20260905084156 15 180 0.0 0.0 0.08 0.79 0.79 95
20260905083656 15 180 0.0 0.0 0.08 0.79 0.79 95
20260905083203 15 180 0.0 0.0 0.08 0.79 0.79 95
20260905082656 15 180 0.0 9.7 0.08 0.79 0.79 95
20260905082156 15 180 0.0 9.7 0.08 0.79 0.79 96
20260905081656 15 180 8.0 16.1 0.08 0.79 0.79 96
20260905081156 15 180 0.0 9.7 0.08 0.79 0.79 95
20260905080811 16 180 8.0 14.5 0.05 0.76 0.76 92
20260905080156 16 180 12.9 16.1 0.00 0.71 0.71 88
20260905075656 16 180 12.9 17.7 0.00 0.71 0.71 83
20260905075156 17 180 6.4 16.1 0.00 0.71 0.71 82
20260905074656 17 180 1.6 14.5 0.00 0.71 0.71 81
20260905074156 17 180 9.7 16.1 0.00 0.71 0.71 80
20260905073656 17 180 0.0 11.3 0.00 0.71 0.71 80
20260905073156 17 180 0.0 17.7 0.08 0.71 0.71 80
20260905072656 17 180 3.2 17.7 0.08 0.71 0.71 78
20260905072156 17 180 8.0 25.7 0.08 0.71 0.71 75
20260905071656 17 180 4.8 17.7 0.08 0.71 0.71 77
20260905071156 17 180 6.4 6.4 0.08 0.71 0.71 77
20260905070656 17 180 0.0 22.5 0.08 0.71 0.71 75
20260905070156 17 180 6.4 12.9 0.08 0.71 0.71 74
20260905065656 17 180 0.0 11.3 0.08 0.71 0.71 76
20260905065156 17 180 0.0 17.7 0.08 0.71 0.71 75
20260905064656 17 180 17.7 17.7 0.08 0.71 0.71 75
20260905064156 17 180 1.6 11.3 0.08 0.71 0.71 76
20260905063656 17 180 1.6 14.5 0.08 0.71 0.71 76
20260905063156 17 180 4.8 8.0 0.00 0.64 0.64 77
20260905062656 17 180 0.0 12.9 0.00 0.64 0.64 76
20260905062156 17 180 4.8 16.1 0.00 0.64 0.64 80
20260905061656 17 180 3.2 14.5 0.00 0.64 0.64 81
20260905061156 17 180 6.4 14.5 0.00 0.64 0.64 83
20260905060656 17 180 8.0 12.9 0.00 0.64 0.64 83
20260905060156 17 180 9.7 12.9 0.00 0.64 0.64 84
20260905055656 17 180 8.0 14.5 0.00 0.64 0.64 83
20260905055156 17 180 4.8 16.1 0.00 0.64 0.64 83
20260905054658 17 180 9.7 11.3 0.00 0.64 0.64 83
20260905054156 17 180 3.2 17.7 0.00 0.64 0.64 83
20260905053656 17 180 0.0 14.5 0.00 0.64 0.64 85
20260905053156 17 180 8.0 9.7 0.00 0.64 0.64 86
20260905052656 17 180 0.0 6.4 0.00 0.64 0.64 89
20260905052156 17 180 1.6 9.7 0.00 0.64 0.64 90
20260905051656 16 180 0.0 4.8 0.00 0.64 0.64 90
20260905051156 16 180 0.0 11.3 0.00 0.64 0.64 90
20260905050656 16 180 0.0 3.2 0.00 0.64 0.64 91
20260905050156 16 180 0.0 4.8 0.03 0.64 0.64 91
20260905045656 16 180 0.0 4.8 0.05 0.64 0.64 90
20260905045156 16 180 0.0 4.8 0.23 0.64 0.64 90
20260905044656 16 180 0.0 3.2 0.23 0.64 0.64 89
20260905044156 16 180 3.2 4.8 0.23 0.64 0.64 89
20260905043656 16 180 3.2 9.7 0.23 0.64 0.64 89
20260905043156 16 180 0.0 4.8 0.23 0.64 0.64 89
20260905042656 16 180 0.0 9.7 0.23 0.64 0.64 89
20260905042156 16 180 0.0 3.2 0.23 0.64 0.64 89
20260905041656 16 180 0.0 0.0 0.25 0.64 0.64 88
20260905041156 16 180 0.0 3.2 0.25 0.64 0.64 88
20260905040656 16 180 0.0 6.4 0.28 0.64 0.64 88
20260905040156 16 180 0.0 8.0 0.28 0.61 0.61 87
20260905035656 16 180 0.0 3.2 0.41 0.58 0.56 87
20260905035156 17 180 0.0 4.8 0.23 0.41 0.41 87
20260905034656 16 180 0.0 11.3 0.23 0.41 0.41 86
20260905034156 17 180 0.0 6.4 0.23 0.41 0.41 86
20260905033656 16 180 0.0 1.6 0.23 0.41 0.41 85
20260905033156 17 180 0.0 1.6 0.23 0.41 0.41 85
20260905032656 17 180 0.0 11.3 0.23 0.41 0.41 86
20260905032156 17 180 0.0 8.0 0.23 0.41 0.41 84
20260905031656 17 180 1.6 6.4 0.20 0.38 0.38 82
20260905031156 17 180 4.8 12.9 0.20 0.38 0.38 80
20260905030656 17 180 4.8 19.3 0.18 0.36 0.36 73
20260905030157 18 180 9.7 30.6 0.15 0.33 0.33 69
20260905025656 18 180 12.9 12.9 0.10 0.18 0.18 71
20260905025157 18 180 6.4 17.7 0.15 0.18 0.18 71
20260905024656 18 180 6.4 11.3 0.15 0.18 0.18 76
20260905024157 18 180 0.0 12.9 0.15 0.18 0.18 79
20260905023657 18 180 0.0 11.3 0.15 0.18 0.18 81
20260905023157 18 180 0.0 11.3 0.15 0.18 0.18 83
20260905022657 18 180 6.4 14.5 0.15 0.18 0.18 85
20260905022157 18 180 0.0 0.0 0.15 0.18 0.18 82
20260905021657 18 180 0.0 0.0 0.15 0.18 0.18 79
20260905021157 19 180 0.0 0.0 0.15 0.18 0.18 77
20260905020657 19 180 0.0 3.2 0.15 0.18 0.18 75
20260905020157 20 180 1.6 11.3 0.15 0.18 0.18 73
20260905015657 20 180 4.8 12.9 0.05 0.08 0.08 71
20260905015157 20 180 0.0 8.0 0.00 0.03 0.03 70
20260905014657 20 180 8.0 11.3 0.00 0.03 0.03 68
20260905014157 20 180 0.0 3.2 0.00 0.03 0.03 67
20260905013657 20 180 1.6 11.3 0.00 0.03 0.03 67
20260905013157 20 180 0.0 8.0 0.00 0.03 0.03 67
20260905012657 20 180 0.0 6.4 0.00 0.03 0.03 69
20260905012157 20 180 1.6 4.8 0.00 0.03 0.03 67
20260905011657 20 180 0.0 3.2 0.00 0.03 0.03 68
20260905011157 20 180 0.0 4.8 0.00 0.03 0.03 68
20260905010657 20 180 0.0 14.5 0.00 0.03 0.03 68
20260905010157 19 180 0.0 16.1 0.00 0.03 0.03 72
20260905005657 18 180 1.6 14.5 0.00 0.03 0.03 81
20260905005157 17 180 0.0 8.0 0.00 0.03 0.03 88
20260905004700 17 180 0.0 0.0 0.00 0.03 0.03 90
20260905004157 17 180 0.0 0.0 0.00 0.03 0.03 91
20260905003657 17 180 0.0 0.0 0.00 0.03 0.03 92
20260905003157 17 180 0.0 0.0 0.00 0.03 0.03 92
20260905002657 17 180 0.0 3.2 0.00 0.03 0.03 91
20260905002157 16 180 0.0 4.8 0.00 0.03 0.03 91
20260905001657 16 180 0.0 0.0 0.00 0.03 0.03 94
20260905001157 17 180 0.0 0.0 0.00 0.03 0.03 94
20260905000657 17 180 0.0 0.0 0.00 0.03 0.03 93
20260905000157 17 180 0.0 0.0 0.00 0.03 0.03 93
20260904235657 17 180 0.0 0.0 0.00 0.03 0.03 94
20260904235157 16 180 0.0 0.0 0.00 0.03 0.03 94